Temperature
16 16 16 16 16 17 17 17 17 17 17 17 16 16 16 16 16 16 16 16 16 16 16 16 16 16 15 15 15 15 15 15 15 15 15 15 15 15 15 15 15 15 15
16 16 16 16 16 16 17 16 16 17 16 16 16 16 16 16 16 16 16 16 16 15 15 15 16 16 15 15 15 15 15 15 15 15 15 15 15 15 15 15 15 15 15
16 16 16 16 16 16 16 16 16 16 16 16 16 16 16 16 16 16 16 16 16 16 15 15 15 15 15 15 15 15 15 15 15 15 15 15 15 15 15 15 15 15 15
16 16 16 16 16 16 16 16 16 16 16 16 16 16 16 16 16 16 16 16 16 16 16 16 15 15 15 15 15 15 15 15 15 15 15 15 15 15 15 15 15 15 15
16 15 15 16 16 16 16 16 16 16 16 16 16 16 16 16 16 16 16 16 16 16 16 15 15 15 15 15 15 15 14 14 14 14 14 14 14 14 15 15 15 15 15
15 15 15 15 15 15 15 15 15 15 15 16 16 16 16 16 16 16 16 16 15 15 15 15 15 15 15 15 15 14 14 14 14 14 14 14 14 14 14 15 15 15 15
15 15 15 15 15 15 15 15 15 15 15 15 15 15 15 15 15 15 15 15 15 15 15 15 15 15 15 15 15 14 14 14 14 14 14 14 14 14 14 14 14 14 14
15 14 14 14 15 15 15 15 15 15 15 15 15 15 15 15 15 15 15 15 15 15 15 15 15 15 15 15 15 14 14 14 14 14 14 14 14 14 14 14 14 14 14
14 14 14 14 14 14 14 15 15 15 15 15 15 15 15 15 15 15 15 15 15 15 15 15 15 15 15 14 14 14 14 14 14 14 14 14 14 14 14 14 14 14 14
13 14 14 14 14 14 14 14 14 14 15 15 15 15 15 15 15 15 15 15 15 15 15 15 15 15 14 14 14 14 14 14 14 14 14 14 14 14 14 14 14 14 14
13 13 13 13 14 14 14 14 14 14 14 14 14 14 14 14 14 14 14 15 15 15 15 15 14 14 14 14 14 14 14 13 13 13 13 13 13 13 13 14 14 14 14
13 13 13 13 13 13 13 14 14 14 14 14 14 14 14 14 14 14 14 14 14 14 14 14 14 14 14 14 14 14 13 13 13 13 13 13 13 13 13 13 13 13 14
12 13 13 13 13 13 13 13 13 14 14 14 14 14 14 14 14 14 14 14 14 14 14 14 14 14 14 14 14 14 13 13 13 13 13 13 13 13 13 13 13 13 13
12 12 13 13 13 13 13 13 13 13 13 13 13 13 13 13 13 13 13 14 14 14 14 14 14 14 14 14 14 13 13 13 13 13 13 13 13 13 13 13 13 13 13
12 12 12 12 12 13 13 13 13 13 13 13 13 13 13 13 13 13 13 13 13 13 13 13 13 13 13 13 13 13 13 13 13 13 13 13 13 13 13 13 13 13 13
12 12 12 12 12 12 12 12 12 13 13 13 13 13 13 13 13 13 13 13 13 13 13 13 13 13 13 13 13 13 13 13 13 13 13 12 12 12 12 12 12 12 12
12 12 11 11 11 12 12 12 12 12 12 12 12 12 12 12 12 12 12 13 13 13 13 13 13 13 13 13 13 13 13 13 13 13 12 12 12 12 12 12 12 12 12
11 11 11 11 11 11 12 11 12 12 12 12 12 12 12 12 12 12 12 12 12 12 12 12 12 12 12 12 12 12 12 12 12 12 12 12 12 11 11 11 11 11 11
11 11 11 11 11 11 11 11 11 11 11 11 11 11 11 12 12 12 12 12 12 12 12 12 12 12 12 12 12 12 12 12 12 12 11 11 11 11 11 11 11 11 11
11 11 11 11 11 11 11 11 11 11 11 11 11 11 11 11 11 12 11 11 11 11 12 12 12 12 11 11 11 11 11 11 11 11 11 11 11 11 11 11 10 10 10
11 11 11 10 10 10 11 11 11 11 11 10 10 10 11 11 11 11 11 11 11 11 11 11 11 11 11 11 11 11 11 11 10 10 10 10 10 10 10 10 10 10 10
11 10 10 10 10 10 10 10 10 10 10 10 10 10 10 10 10 10 11 11 11 11 11 11 10 10 10 10 10 10 10 10 10 10 10 9 9 9 9 9 9 9 9
10 10 10 10 10 10 10 10 10 10 10 10 10 10 10 10 10 10 10 10 10 10 10 10 10 10 10 10 9 9 9 8 8 9 9 9 9 9 9 9 9 9 8
10 10 10 10 10 10 10 10 10 10 10 10 10 9 9 9 10 10 10 10 10 10 10 10 9 9 9 9 9 9 8 8 7 7 7 8 8 8 8 8 8 8 8
10 10 10 9 9 9 9 9 9 9 10 10 9 9 9 9 9 9 9 9 9 9 9 9 9 9 9 9 8 8 8 8 7 7 6 7 7 7 7 7 7 7 7
10 10 9 9 9 9 9 9 9 9 9 9 9 9 9 9 9 9 9 9 8 8 8 8 8 8 8 8 8 8 7 7 7 6 6 6 6 7 7 7 7 7 7
Wind_Speed
4 7 11 12 12 12 11 11 12 12 12 13 13 13 13 13 13 13 12 12 11 11 11 11 11 11 10 11 11 11 11 11 11 11 11 11 11 11 11 11 11 10 12
7 10 12 13 13 13 12 11 11 12 12 12 12 12 12 12 11 11 11 11 10 10 10 10 10 10 10 9 10 10 10 10 10 9 9 10 10 10 10 10 10 9 10
8 10 12 13 13 13 13 12 11 11 12 12 12 11 11 11 11 11 10 10 10 10 9 9 9 9 9 9 8 8 8 8 8 8 7 7 8 9 9 9 9 9 9
9 10 11 13 14 14 13 12 11 11 11 11 12 12 12 11 11 10 10 9 9 9 9 9 9 8 8 7 7 6 6 6 6 6 6 5 6 7 8 8 8 8 8
8 10 12 13 14 14 14 12 11 11 11 11 11 11 11 11 10 10 9 9 9 9 9 9 8 8 7 6 6 5 5 6 6 5 5 4 5 6 6 6 7 7 7
8 10 12 13 13 13 13 13 12 11 10 10 10 10 10 10 10 9 9 8 8 8 8 8 7 6 6 5 4 4 5 5 6 4 4 4 4 5 5 5 5 5 5
8 9 12 13 13 12 13 12 11 11 10 10 10 9 9 9 9 9 9 8 8 7 7 7 6 5 5 3 3 4 4 5 5 4 3 3 3 5 4 4 4 4 5
9 9 11 12 12 12 11 11 10 10 10 9 9 9 9 9 8 8 9 8 7 7 7 6 5 5 4 3 3 4 4 4 3 2 2 2 3 4 4 4 4 3 3
9 8 8 10 10 11 11 11 10 10 9 9 8 9 8 7 8 8 8 7 7 6 6 5 4 4 3 2 2 2 3 3 3 1 1 2 3 4 3 3 3 3 3
7 6 6 8 8 8 9 10 10 9 9 8 8 9 8 7 7 7 6 7 6 5 5 4 4 3 2 2 2 2 2 2 2 1 1 2 3 4 4 3 3 3 3
6 4 5 6 6 7 7 8 9 9 8 8 8 9 8 7 6 5 5 6 5 4 4 3 3 2 2 1 1 2 2 2 2 1 2 2 3 3 4 3 3 3 4
5 4 4 5 5 5 6 6 6 7 7 7 7 7 7 7 6 5 5 4 4 4 3 3 2 2 2 2 2 2 2 2 2 2 2 2 2 3 3 3 3 4 4
5 5 4 5 5 4 4 5 5 5 6 6 7 7 7 7 6 6 5 4 4 4 4 3 3 2 2 2 2 2 2 2 2 1 2 2 2 2 3 3 3 4 4
5 5 4 5 5 4 5 4 5 5 4 5 5 6 6 5 4 4 4 4 4 3 3 3 3 2 2 2 2 2 2 2 2 2 2 2 2 2 2 3 3 4 4
5 5 5 4 4 4 5 4 4 4 4 5 5 6 6 4 3 3 3 3 4 3 3 2 2 2 2 2 2 2 2 2 2 1 2 2 3 3 2 2 3 3 3
5 5 5 5 4 5 4 3 4 5 5 5 5 6 7 6 4 3 2 3 3 3 2 2 2 1 1 2 2 2 2 2 2 1 1 1 2 2 2 2 3 3 4
6 5 6 5 5 5 5 4 4 5 5 5 4 6 6 6 5 4 2 2 2 2 3 3 3 2 2 2 2 2 2 2 2 1 1 1 1 1 2 2 3 3 4
7 6 6 5 5 5 5 4 4 5 5 4 4 5 6 6 5 5 3 1 2 3 3 2 2 2 2 2 2 2 2 2 2 1 1 1 0 1 2 2 3 4 4
8 7 6 6 6 5 5 4 4 4 4 4 4 4 5 5 5 5 3 2 3 3 2 2 2 1 1 2 2 2 2 2 1 2 2 2 1 1 2 3 4 5 5
7 7 7 6 6 5 5 4 3 3 3 4 4 3 4 4 4 5 3 3 3 2 2 2 2 2 1 1 2 3 3 2 2 2 2 3 4 3 3 3 3 4 5
6 6 6 6 5 5 4 3 3 2 1 2 2 3 4 4 4 4 3 2 2 2 2 2 2 2 2 1 2 2 3 3 3 2 2 3 4 4 4 4 4 3 4
7 6 6 6 6 5 4 3 2 3 2 1 1 2 3 4 4 3 3 2 2 2 2 2 2 1 1 2 2 1 2 3 3 3 3 2 2 4 4 5 5 4 4
6 7 7 6 6 5 5 4 4 3 2 1 1 1 1 3 3 3 3 2 2 2 1 2 2 2 1 2 2 2 1 1 2 2 2 3 3 3 3 4 4 4 4
6 6 6 6 6 5 6 6 6 4 3 3 2 1 1 2 3 3 3 2 2 1 1 1 1 1 2 0 1 1 1 2 1 2 2 3 4 3 3 3 3 4 5
5 6 6 6 5 5 5 6 5 4 3 2 1 2 2 1 2 2 2 2 1 1 1 1 1 1 1 1 1 0 1 1 1 1 3 3 3 2 2 2 2 3 4
4 5 6 6 5 5 6 6 7 6 4 3 2 3 2 1 1 1 1 1 1 0 0 0 1 1 1 1 1 1 1 1 1 1 2 3 4 3 3 2 2 2 3
Wind_Direction
163 164 146 135 130 123 117 116 122 120 117 115 114 110 109 108 107 108 110 109 108 106 104 100 96 94 95 95 92 89 88 86 83 82 80 79 85 91 91 86 82 81 84
156 154 143 134 130 125 121 115 120 124 121 119 118 117 115 113 111 112 112 112 112 108 105 103 99 94 94 97 96 93 91 88 84 81 81 80 84 90 93 91 87 88 88
140 144 142 135 131 125 121 119 115 120 121 121 120 120 118 117 116 115 115 114 116 113 109 106 102 99 95 92 97 98 94 89 83 80 83 84 89 94 96 96 91 91 91
133 138 140 135 134 129 124 121 119 116 119 120 120 120 119 118 118 117 116 115 115 113 111 107 104 101 98 93 90 93 89 84 84 87 87 88 94 100 100 99 99 94 92
126 134 138 135 135 131 126 124 122 118 116 120 121 120 121 121 119 117 115 114 115 116 113 109 107 104 99 92 87 82 75 75 82 92 101 96 99 108 108 105 105 101 98
125 128 136 136 133 130 127 125 122 120 117 120 120 121 121 121 122 119 114 116 118 118 116 115 113 110 104 96 83 74 68 67 74 91 114 113 115 122 118 114 112 110 109
127 124 129 132 131 130 127 124 122 118 117 118 121 120 123 121 120 119 117 114 120 124 123 120 122 121 112 99 80 70 66 63 71 94 125 134 138 135 134 133 130 125 121
126 120 126 127 127 126 125 124 126 124 121 117 122 121 120 121 120 119 119 114 114 119 123 123 123 124 117 101 74 61 57 55 61 93 128 166 171 154 149 146 146 139 139
118 117 116 120 124 125 125 126 126 126 122 118 122 119 113 115 120 123 121 118 113 117 121 120 121 126 118 104 76 52 46 46 59 81 182 191 186 172 163 163 169 173 166
115 118 115 115 119 123 127 130 126 124 121 116 117 115 109 107 117 122 122 118 112 105 115 117 115 114 112 94 60 40 25 32 35 304 224 215 208 194 180 178 186 192 194
114 117 122 121 124 128 130 130 125 121 118 115 112 110 107 100 105 115 118 120 116 105 100 112 107 95 89 64 39 28 20 10 6 322 255 239 222 211 200 201 207 213 223
141 141 137 134 132 127 126 120 119 117 113 112 109 108 104 100 95 101 108 111 115 106 88 90 91 72 58 23 1 12 6 354 350 301 266 259 245 227 218 222 228 234 238
154 146 148 142 131 121 116 120 114 111 107 108 106 107 104 95 89 86 83 78 80 88 71 60 57 43 38 17 356 351 343 338 324 289 262 252 259 244 243 245 246 254 249
151 149 141 138 129 121 119 118 117 108 104 104 107 112 108 96 84 81 75 72 65 63 64 52 34 27 26 13 353 339 335 326 296 265 252 236 244 253 257 255 253 261 260
155 151 146 136 135 127 116 117 117 111 106 104 107 107 110 105 97 82 73 71 61 52 47 41 35 26 10 1 358 353 341 330 306 283 267 244 240 246 264 275 276 279 272
162 151 144 139 133 129 121 119 126 116 111 99 98 106 107 107 104 98 81 67 55 47 43 47 47 43 19 22 11 1 346 341 335 327 304 272 264 264 275 295 299 296 288
162 149 143 141 133 127 120 118 117 113 108 97 94 104 104 106 105 97 86 72 50 57 63 52 44 54 47 36 6 351 351 348 345 339 329 310 303 305 307 323 334 329 322
158 149 142 139 135 125 120 114 109 108 106 100 94 99 96 96 103 95 82 60 58 61 55 66 51 53 33 18 353 338 344 357 357 349 18 32 341 341 359 358 351 343 337
161 152 144 137 136 127 120 114 106 100 98 100 92 91 93 90 92 91 81 58 76 71 56 62 61 68 37 4 346 346 346 348 350 30 41 37 47 47 20 8 10 5 357
157 151 147 141 138 125 109 94 81 74 72 85 88 85 92 89 87 89 75 57 68 86 67 64 71 48 59 4 7 3 350 344 7 42 37 40 45 42 32 19 9 353 354
151 150 148 146 147 135 124 123 117 110 89 70 73 87 95 92 86 85 77 58 60 88 88 76 89 63 40 31 46 14 3 3 21 22 35 48 41 32 31 24 12 3 350
163 163 155 156 157 155 149 148 141 135 124 123 86 69 93 94 88 87 81 67 62 76 73 69 75 74 32 41 79 66 359 351 1 10 16 33 33 37 29 17 13 10 359
171 172 168 166 166 165 151 133 116 91 74 72 59 22 83 106 97 88 84 71 58 78 84 79 84 94 91 10 58 117 139 250 312 332 0 14 16 18 9 2 4 357 346
184 175 166 168 169 171 159 155 154 155 166 189 182 185 143 112 105 96 92 79 65 74 83 78 83 114 130 132 359 43 146 169 196 305 325 351 358 353 343 353 1 355 349
173 169 166 165 173 174 169 164 159 163 169 162 161 157 144 105 101 110 110 96 77 74 89 89 91 103 129 166 190 179 55 45 188 209 277 306 326 320 326 332 352 350 347
156 160 162 165 176 175 170 169 172 176 174 172 181 168 161 146 127 121 126 118 130 141 167 179 166 152 173 180 190 169 178 192 221 213 254 283 296 298 311 317 338 340 337
Height
1518 1520 1521 1523 1524 1525 1526 1527 1528 1529 1530 1531 1532 1533 1533 1534 1535 1535 1536 1536 1537 1537 1538 1538 1539 1539 1540 1540 1541 1541 1541 1541 1542 1542 1542 1543 1543 1543 1543 1543 1543 1543 1543
1516 1519 1521 1522 1523 1524 1525 1526 1527 1529 1530 1531 1531 1532 1533 1534 1535 1535 1536 1536 1537 1538 1538 1539 1539 1539 1540 1541 1541 1541 1542 1542 1542 1543 1543 1543 1544 1544 1544 1544 1544 1544 1544
1516 1518 1520 1521 1523 1524 1525 1526 1527 1528 1529 1530 1531 1532 1533 1534 1535 1535 1536 1536 1537 1538 1538 1539 1539 1540 1540 1541 1541 1542 1542 1542 1543 1543 1543 1544 1544 1544 1545 1545 1545 1545 1545
1515 1517 1519 1521 1522 1523 1525 1526 1526 1527 1529 1530 1531 1532 1533 1534 1535 1535 1536 1536 1537 1538 1538 1539 1539 1540 1541 1541 1541 1542 1542 1543 1543 1543 1544 1544 1545 1545 1545 1545 1546 1546 1546
1515 1517 1518 1520 1521 1523 1524 1525 1526 1527 1528 1529 1530 1532 1533 1533 1534 1535 1536 1536 1537 1538 1538 1539 1539 1540 1541 1541 1541 1542 1542 1543 1543 1544 1544 1545 1545 1545 1545 1546 1546 1546 1546
1514 1516 1518 1519 1520 1522 1523 1524 1525 1526 1528 1529 1530 1531 1532 1533 1534 1535 1535 1536 1537 1537 1538 1539 1539 1540 1540 1541 1542 1542 1542 1543 1543 1544 1544 1545 1545 1545 1545 1546 1546 1546 1546
1513 1515 1517 1518 1519 1521 1522 1523 1525 1526 1527 1528 1529 1531 1532 1533 1534 1534 1535 1536 1537 1537 1538 1538 1539 1539 1540 1541 1541 1542 1542 1542 1543 1543 1544 1544 1545 1545 1545 1546 1546 1546 1546
1512 1514 1516 1518 1519 1520 1521 1522 1524 1525 1526 1527 1529 1530 1531 1532 1533 1534 1535 1535 1536 1537 1537 1538 1538 1539 1539 1540 1541 1541 1542 1542 1543 1543 1543 1544 1544 1545 1545 1545 1546 1546 1546
1511 1514 1516 1517 1519 1520 1521 1523 1524 1525 1526 1527 1528 1529 1530 1531 1532 1533 1534 1535 1535 1536 1536 1537 1538 1538 1539 1539 1540 1540 1541 1541 1542 1542 1543 1543 1544 1544 1544 1545 1545 1545 1545
1511 1513 1515 1516 1518 1519 1520 1522 1523 1524 1525 1526 1527 1528 1529 1530 1531 1532 1533 1534 1534 1535 1535 1536 1537 1537 1538 1538 1539 1540 1540 1541 1541 1541 1542 1542 1543 1543 1543 1544 1544 1544 1545
1510 1512 1514 1515 1517 1518 1519 1521 1522 1523 1524 1525 1526 1527 1528 1529 1530 1531 1532 1533 1534 1534 1534 1535 1536 1536 1537 1537 1538 1539 1539 1539 1540 1540 1541 1541 1542 1542 1542 1543 1543 1543 1543
1509 1511 1513 1515 1516 1517 1518 1520 1521 1522 1523 1524 1525 1526 1527 1528 1529 1530 1531 1532 1532 1533 1533 1534 1535 1535 1536 1536 1537 1537 1538 1538 1539 1539 1539 1540 1540 1541 1541 1541 1542 1542 1542
1508 1510 1512 1514 1515 1516 1517 1519 1520 1521 1522 1523 1524 1525 1526 1527 1528 1529 1530 1530 1531 1532 1532 1533 1534 1534 1534 1535 1536 1536 1537 1537 1537 1538 1538 1538 1539 1539 1539 1540 1540 1540 1540
1507 1508 1510 1512 1514 1515 1516 1518 1519 1520 1521 1522 1523 1524 1525 1526 1527 1528 1528 1529 1530 1530 1531 1532 1532 1533 1533 1534 1534 1535 1535 1535 1536 1536 1536 1537 1537 1537 1538 1538 1538 1538 1538
1505 1507 1508 1510 1512 1513 1515 1516 1518 1519 1520 1521 1522 1523 1524 1525 1526 1526 1527 1528 1528 1529 1530 1530 1531 1532 1532 1533 1533 1533 1533 1534 1534 1534 1534 1535 1535 1535 1535 1536 1536 1536 1536
1504 1506 1507 1509 1510 1512 1514 1515 1517 1518 1519 1520 1521 1522 1523 1524 1524 1525 1525 1526 1527 1528 1528 1529 1529 1530 1531 1531 1531 1531 1532 1532 1532 1532 1532 1532 1533 1533 1533 1533 1533 1534 1534
1504 1505 1506 1507 1509 1510 1512 1514 1515 1516 1517 1518 1519 1521 1522 1522 1523 1524 1524 1525 1526 1526 1527 1527 1528 1528 1529 1529 1529 1530 1530 1530 1530 1530 1530 1530 1530 1530 1531 1531 1531 1531 1531
1502 1503 1505 1506 1508 1509 1511 1512 1514 1515 1516 1517 1518 1519 1520 1521 1522 1523 1523 1524 1524 1525 1525 1526 1526 1526 1526 1527 1527 1527 1528 1528 1528 1528 1528 1528 1528 1528 1528 1528 1528 1528 1528
1501 1502 1503 1505 1506 1508 1510 1511 1513 1514 1515 1516 1517 1518 1519 1520 1521 1521 1522 1522 1523 1523 1524 1524 1524 1524 1524 1524 1525 1525 1525 1525 1525 1525 1525 1525 1525 1525 1525 1525 1525 1525 1525
1499 1501 1502 1504 1505 1507 1508 1510 1512 1513 1514 1515 1516 1517 1518 1519 1519 1520 1520 1521 1521 1521 1522 1522 1522 1522 1522 1522 1522 1523 1523 1523 1523 1523 1523 1523 1523 1523 1523 1523 1523 1522 1522
1497 1499 1501 1502 1504 1505 1507 1509 1510 1511 1512 1513 1514 1515 1516 1517 1518 1518 1519 1519 1519 1520 1520 1520 1520 1520 1520 1520 1520 1520 1521 1521 1521 1521 1521 1521 1521 1520 1520 1520 1520 1519 1519
1495 1497 1499 1501 1503 1504 1506 1508 1509 1510 1511 1512 1513 1514 1514 1515 1516 1517 1517 1518 1518 1518 1518 1518 1518 1518 1518 1518 1518 1518 1518 1519 1518 1519 1518 1518 1518 1518 1518 1517 1517 1516 1515
1493 1495 1497 1500 1502 1504 1505 1507 1507 1508 1510 1511 1511 1512 1513 1514 1515 1515 1516 1516 1516 1516 1516 1516 1516 1516 1516 1516 1516 1517 1517 1515 1515 1515 1515 1515 1515 1515 1515 1514 1514 1513 1512
1492 1494 1496 1498 1500 1502 1504 1505 1505 1506 1508 1509 1510 1510 1511 1512 1513 1513 1514 1514 1514 1514 1514 1514 1514 1514 1514 1514 1514 1514 1515 1514 1514 1512 1512 1512 1512 1512 1511 1511 1510 1510 1509
1491 1493 1495 1497 1499 1500 1502 1503 1504 1505 1507 1508 1508 1508 1509 1510 1511 1511 1512 1512 1512 1512 1512 1512 1512 1512 1512 1512 1512 1511 1511 1511 1511 1510 1508 1508 1508 1508 1508 1507 1507 1506 1506
1489 1491 1493 1495 1497 1498 1500 1501 1502 1504 1505 1505 1506 1506 1507 1508 1509 1509 1510 1510 1510 1510 1510 1510 1510 1510 1510 1509 1509 1508 1508 1508 1508 1507 1506 1505 1504 1504 1504 1504 1504 1503 1502